GFSSGP_prec_cloud_162.txt.gz
Cloud_Cover
0 0 0 0 0 0 1 40 5 30 100 100 6 74 97 54 99 100 100 100 100 100 94 100 100 100 99 100 100 100 99 5 23 26 5 5 0 0 0 2 12 100 74 2 0 3 12 5 5
0 0 0 0 0 0 0 4 5 13 64 88 8 24 56 97 100 100 100 100 100 100 100 100 100 100 100 100 100 100 96 26 15 24 57 5 5 4 0 0 14 100 5 0 15 32 6 11 70
0 0 0 0 0 0 0 0 5 0 92 28 27 11 52 97 100 100 100 100 100 100 100 100 100 100 92 80 26 21 93 20 37 6 5 4 0 0 0 3 5 1 0 40 86 100 100 6 62
0 0 0 0 0 0 0 0 0 4 5 81 9 54 75 100 100 100 100 100 100 100 100 100 100 100 90 89 6 5 30 84 6 5 3 2 0 0 0 0 0 0 3 5 5 5 5 94 100
0 0 0 0 0 26 14 0 0 6 44 10 13 87 69 100 100 100 100 100 100 100 100 100 100 100 100 97 8 5 5 5 5 3 0 0 0 0 0 0 0 0 0 0 0 5 26 99 100
0 0 0 0 0 36 100 4 0 0 84 63 5 64 89 96 100 100 100 100 100 100 98 99 76 100 100 100 9 5 5 5 5 5 5 4 5 3 1 1 0 5 5 5 9 5 4 5 5
0 0 0 0 0 25 100 82 0 0 0 21 5 5 100 80 100 100 100 100 100 100 100 100 100 100 100 100 69 5 5 94 20 5 1 1 5 43 5 5 16 29 5 5 4 3 5 5 2
0 0 0 0 0 0 28 100 9 0 0 0 85 92 95 100 100 100 100 100 100 100 100 100 100 100 100 100 81 49 99 28 4 0 0 1 5 5 5 5 5 5 5 5 69 30 5 5 9
0 0 0 0 0 0 1 79 100 0 0 0 100 100 32 100 100 100 100 100 100 100 100 100 98 100 99 100 14 5 5 16 5 5 5 5 5 5 22 32 5 5 5 5 5 14 20 20 5
0 0 0 0 0 0 0 3 16 4 0 0 100 100 75 91 100 100 100 100 100 100 100 100 100 99 65 33 51 42 67 100 95 7 62 7 2 3 3 4 5 5 5 5 5 5 5 20 5
0 0 0 0 0 0 0 0 0 4 0 0 10 100 100 65 100 100 100 100 100 100 100 100 100 83 66 16 63 45 38 38 26 12 22 7 5 5 8 8 5 5 6 9 24 16 5 5 2
0 0 0 0 0 0 0 0 0 0 4 1 0 75 100 97 100 100 100 100 100 95 28 100 100 100 71 54 53 32 77 34 29 18 13 25 20 1 5 98 98 72 25 97 100 86 24 34 96
0 0 0 0 0 0 0 0 0 0 0 5 0 1 100 100 100 100 100 100 100 100 91 100 100 100 98 25 59 90 68 80 12 6 7 14 6 24 84 100 82 100 100 100 100 76 5 40 100
0 0 0 0 0 0 2 0 0 0 0 1 3 0 14 100 100 100 100 100 100 100 100 100 100 100 100 100 100 100 100 75 6 5 19 67 77 77 99 100 100 100 100 100 68 93 94 100 100
0 0 0 0 0 0 4 3 0 0 0 0 0 5 4 37 100 100 100 100 100 100 100 100 100 100 100 95 100 76 54 20 49 64 100 20 25 100 100 100 100 100 99 91 99 73 100 100 100
0 0 0 0 0 0 0 25 0 0 0 0 0 0 4 1 100 100 100 100 100 100 100 100 98 100 100 98 8 20 96 16 61 82 64 92 100 100 100 100 100 100 100 100 100 100 100 100 100
0 0 0 0 0 0 2 3 5 1 0 0 0 3 3 0 99 100 100 100 100 100 100 100 72 45 100 72 63 80 51 98 99 46 100 100 100 100 100 100 91 88 58 94 100 100 100 100 100
0 0 0 0 0 0 0 10 5 3 0 0 0 0 3 73 88 100 100 100 100 100 100 100 100 96 6 17 92 5 26 100 100 94 100 100 100 100 100 100 100 100 100 100 100 100 100 100 100
0 0 0 0 0 0 0 4 5 1 0 0 0 0 1 36 94 100 100 100 100 100 100 100 100 100 100 38 93 30 92 100 100 100 100 100 100 100 100 100 100 100 100 100 100 100 100 100 100
0 0 0 0 0 0 0 1 62 1 0 0 0 0 30 100 100 20 70 100 95 96 100 100 100 100 65 56 99 33 100 92 100 100 100 100 100 100 100 100 100 100 100 100 100 100 100 91 100
0 0 0 0 0 0 0 0 100 0 0 0 0 0 1 93 99 47 0 100 100 100 52 100 100 100 63 45 89 24 100 25 100 100 100 100 100 100 100 100 100 100 99 92 97 100 100 100 93
4 1 0 0 10 4 0 0 100 2 0 0 0 0 0 18 6 2 0 18 100 100 9 54 71 38 74 96 72 19 100 100 100 100 100 100 100 100 100 100 100 100 81 97 85 97 100 100 100
0 0 2 0 57 84 0 0 95 34 0 0 3 0 0 6 100 28 4 1 31 5 0 0 3 0 2 0 83 92 100 100 100 100 100 100 100 100 100 100 100 100 100 100 100 100 100 99 28
4 1 5 5 66 97 0 0 100 33 0 0 0 1 27 99 61 21 4 5 39 5 0 2 0 31 33 33 95 100 100 100 100 100 100 100 100 100 100 100 100 100 100 100 100 100 80 73 78
2 36 38 61 100 38 0 0 60 4 0 0 0 0 9 100 100 100 100 100 96 5 4 0 42 100 99 96 100 100 100 100 100 100 100 100 100 100 100 100 100 100 100 100 100 100 100 53 100
4 4 22 5 28 3 21 8 18 0 0 0 0 1 69 83 100 100 100 100 100 52 82 99 74 88 100 100 100 83 89 100 100 100 100 100 100 100 100 100 100 100 100 100 100 100 93 100 15
14 6 2 100 3 15 37 0 0 0 0 0 0 0 0 1 56 98 90 99 49 34 100 88 42 79 22 0 0 0 0 100 100 100 100 100 100 100 100 100 100 100 100 100 100 100 67 2 1
1 49 17 100 29 99 8 9 0 0 0 1 0 0 28 8 61 46 6 47 86 100 100 99 15 0 0 3 1 1 0 0 88 98 100 100 100 100 100 100 100 100 100 100 98 89 9 54 100
49 68 72 100 42 69 0 57 1 1 0 0 0 0 3 58 99 76 98 100 100 100 100 40 0 0 0 2 1 0 0 0 0 34 100 100 100 100 100 100 100 100 95 73 76 72 100 28 0
99 5 28 100 52 6 0 26 1 0 0 0 0 53 63 100 100 100 100 100 100 96 14 0 0 0 0 0 0 0 0 0 0 0 5 6 66 100 100 100 100 80 100 99 23 0 0 0 0

GFSSGP_prec_cloud_165.txt.gz
Cloud_Cover
0 0 0 0 0 0 0 1 4 84 100 97 6 64 100 100 100 97 56 70 100 100 100 100 100 100 100 100 100 89 18 100 51 7 6 4 2 0 0 0 0 0 5 3 0 5 4 5 5
0 0 0 0 0 0 0 1 5 30 100 54 19 16 97 100 100 100 87 99 100 99 6 100 100 100 100 100 80 100 100 100 33 5 31 4 0 0 0 0 0 0 1 0 0 0 0 4 5
0 0 0 0 0 0 0 0 2 1 61 35 32 48 29 100 100 100 100 100 100 100 100 99 100 100 100 100 100 56 6 86 16 5 5 5 0 0 0 0 0 0 0 5 8 11 5 5 5
0 0 0 0 0 0 0 0 0 0 1 52 72 41 86 100 100 100 100 100 100 100 100 100 100 100 100 100 82 5 5 5 5 0 4 5 5 0 0 0 3 5 9 51 45 5 6 5 5
0 0 0 0 0 2 34 0 0 0 0 6 99 78 90 98 100 100 100 100 100 100 99 100 100 100 100 100 100 91 6 5 5 2 0 0 0 1 0 5 5 5 5 5 5 75 72 28 15
0 0 0 0 0 0 100 3 0 0 0 3 16 100 81 100 100 100 100 100 98 100 100 100 72 100 100 100 100 100 100 5 5 2 0 4 0 0 0 0 4 5 5 5 32 63 30 97 100
0 0 0 0 0 0 23 36 0 0 0 1 5 96 100 100 100 100 100 100 100 100 100 100 99 100 100 73 96 100 96 56 5 1 1 0 0 0 0 0 0 2 2 5 66 86 80 100 100
0 0 0 0 0 0 0 3 37 0 0 0 3 31 98 100 100 100 100 99 100 100 100 90 100 63 95 63 83 100 100 89 97 4 0 0 0 0 0 0 0 2 5 25 82 38 82 100 99
0 0 0 0 0 0 0 0 7 3 0 0 2 50 55 32 100 100 100 85 100 100 97 96 100 100 96 46 19 100 100 12 17 2 2 0 0 4 2 4 2 5 5 6 54 73 26 74 78
0 0 0 0 0 0 0 0 0 2 0 0 0 81 100 48 99 100 100 100 100 100 100 100 96 68 52 70 12 100 100 5 3 2 2 9 11 5 5 5 5 5 44 97 99 96 68 61 100
0 0 0 0 0 0 0 0 0 0 0 0 0 0 98 100 60 100 100 100 100 100 87 100 100 94 23 62 100 39 5 2 5 7 55 67 9 4 5 16 94 100 100 100 81 86 100 100 100
0 0 0 0 0 0 0 0 0 0 0 0 0 0 6 85 100 95 55 100 100 100 98 100 98 95 99 100 82 100 22 8 7 9 16 3 5 52 22 18 93 100 100 100 100 100 97 86 74
0 0 0 0 0 0 0 0 0 0 0 0 0 0 0 10 66 100 65 100 100 100 100 100 88 98 95 37 100 100 100 35 5 34 7 15 5 7 63 59 85 100 100 100 100 96 46 56 84
0 0 0 0 0 0 0 0 0 0 0 0 0 0 2 0 7 84 100 100 100 100 100 100 100 100 100 100 100 100 100 31 5 5 71 10 5 5 5 92 100 100 100 100 100 73 93 50 74
0 0 0 0 0 0 0 1 0 0 0 0 0 0 18 5 5 35 100 100 100 100 100 100 100 100 100 100 99 100 100 92 80 97 99 5 5 5 22 100 100 100 100 100 100 95 100 100 100
0 0 0 0 0 0 0 0 0 0 0 0 0 1 5 1 5 13 100 99 94 100 100 100 100 100 100 100 100 68 98 5 48 5 74 11 66 81 100 99 99 100 100 100 100 100 100 100 100
0 0 0 0 0 0 0 0 5 0 0 0 0 0 0 5 5 5 86 100 100 100 100 100 100 100 100 100 96 80 11 100 63 5 5 14 100 100 100 100 100 100 100 100 100 100 100 100 98
5 1 0 0 0 0 0 0 0 4 0 0 0 0 0 16 5 52 99 100 100 100 100 100 100 100 100 100 29 70 5 5 94 46 59 66 69 98 100 100 100 100 100 100 100 100 100 100 100
5 5 0 0 0 0 0 1 0 0 0 0 0 0 0 0 12 5 91 100 100 100 100 100 100 100 100 100 100 48 5 35 52 100 100 100 100 100 100 100 100 100 100 100 100 100 100 100 100
2 5 5 0 0 0 0 0 5 0 0 0 0 0 0 0 10 56 55 96 32 65 98 100 100 100 100 100 100 96 72 88 93 100 93 100 100 100 100 100 100 100 100 100 100 100 100 100 67
5 2 4 5 1 0 0 0 5 0 0 0 0 0 0 0 5 5 50 23 58 44 100 100 100 85 90 100 99 61 50 86 99 100 100 100 100 100 100 100 100 100 100 100 100 100 100 100 100
5 1 0 5 5 2 0 0 0 4 0 0 0 0 0 0 1 100 100 41 99 100 22 98 100 100 99 95 92 73 80 99 100 100 100 100 100 100 100 100 100 100 100 100 100 99 100 100 73
0 0 1 0 2 40 2 1 0 2 0 0 0 0 9 2 5 13 58 5 44 86 100 98 100 39 94 69 91 91 94 95 94 100 100 100 100 100 100 100 100 100 100 100 100 100 100 100 30
4 0 4 5 17 18 2 2 5 3 0 0 0 0 2 3 4 2 6 16 21 18 100 5 5 16 97 13 30 73 91 66 100 100 100 100 100 100 100 100 100 100 100 100 100 100 100 100 100
47 5 4 18 37 0 0 44 0 5 0 0 0 0 1 0 1 18 30 9 14 48 0 2 7 99 81 96 92 68 26 24 99 54 51 100 100 100 100 100 100 100 100 100 100 100 100 100 100
0 5 7 1 1 0 4 4 0 5 0 0 0 0 7 33 18 70 7 60 5 9 5 70 91 100 100 100 78 25 11 0 34 93 16 35 100 100 100 100 100 100 100 100 100 100 100 91 97
5 4 3 99 5 2 2 0 0 5 0 0 0 0 57 42 2 100 99 100 21 40 98 72 100 100 100 70 30 3 10 2 0 0 0 0 3 82 100 100 100 100 100 100 100 50 97 98 90
3 5 15 40 42 3 0 0 5 3 0 0 0 0 36 3 62 96 100 100 100 100 100 87 100 96 60 9 0 0 0 0 0 0 0 5 0 0 69 100 100 100 100 100 100 100 100 88 57
50 49 5 14 67 3 0 0 5 0 1 0 0 0 1 96 98 24 94 100 100 100 100 100 100 100 15 3 0 0 0 0 0 0 0 0 0 0 0 6 5 11 5 4 18 49 75 76 28
99 61 68 0 46 5 1 0 2 0 3 0 0 19 67 7 45 95 100 100 100 100 100 100 100 100 100 48 8 0 0 0 0 0 0 0 0 0 0 0 0 0 0 0 0 0 0 0 8

GFSSGP_prec_cloud_168.txt.gz
Cloud_Cover
0 0 0 0 0 0 2 21 0 32 38 15 39 100 100 100 100 100 98 100 100 100 100 100 100 100 43 89 100 92 58 14 100 78 27 24 7 17 6 2 0 0 0 0 6 9 5 5 5
0 0 0 0 0 0 0 5 5 1 28 92 60 45 97 100 100 87 100 100 100 100 100 100 100 86 98 100 100 100 99 97 100 100 47 11 8 5 92 59 1 2 5 43 6 5 5 6 66
0 0 0 0 0 0 0 0 5 0 21 67 93 5 38 100 100 100 100 67 100 100 100 100 31 99 97 100 98 92 100 100 12 35 5 17 5 5 5 55 5 5 5 5 5 5 7 28 98
0 0 0 0 0 0 0 0 0 0 1 43 100 74 5 98 100 100 100 95 94 92 86 98 50 71 6 14 100 89 60 5 4 0 1 5 5 6 5 99 36 43 7 23 7 5 5 6 10
0 0 0 0 0 0 0 0 0 0 0 5 37 100 82 5 95 100 100 100 100 85 70 100 98 74 86 97 100 97 100 84 38 1 5 5 5 31 100 100 52 22 35 16 69 6 10 22 14
0 0 0 0 0 0 0 1 0 0 0 0 22 100 100 38 77 100 100 100 100 97 100 100 97 100 94 100 98 100 100 96 80 62 10 2 5 98 97 45 28 12 6 5 5 5 6 9 8
0 0 0 0 0 0 0 0 0 0 0 0 0 99 100 78 99 86 100 100 100 100 100 100 100 92 18 5 90 39 55 100 100 30 5 5 70 89 100 87 16 14 41 32 9 5 5 5 5
0 0 0 0 0 0 0 0 0 0 0 0 0 62 100 100 91 45 84 100 100 100 100 100 83 81 96 34 22 98 5 6 77 100 96 53 49 100 100 99 91 5 5 5 5 5 10 22 7
0 0 0 0 0 0 0 0 0 0 0 0 0 2 68 97 100 99 74 83 100 100 100 91 100 100 100 83 29 11 6 5 64 100 100 36 5 10 78 26 5 11 6 23 5 5 96 100 95
0 0 0 0 0 0 0 0 0 0 0 0 0 0 54 98 94 100 99 85 100 100 98 98 99 100 86 100 49 100 100 53 81 100 100 96 5 5 5 5 5 24 7 6 5 29 81 100 100
0 0 0 0 0 0 0 0 0 0 0 0 0 0 0 22 27 100 100 100 100 100 100 100 100 89 79 64 46 10 91 66 91 96 73 5 4 5 62 14 5 1 6 100 98 54 17 72 100
0 0 0 0 0 0 0 0 0 0 0 14 0 0 0 0 54 100 100 100 100 100 100 100 99 100 100 100 77 7 79 74 50 29 28 5 0 4 11 18 5 11 100 100 62 20 5 42 62
0 0 0 0 0 0 0 0 0 0 0 0 0 0 2 2 3 99 84 64 83 100 100 100 74 40 100 100 76 100 100 78 5 3 4 5 1 1 92 62 94 100 100 100 100 97 10 5 89
0 0 1 0 0 0 0 0 0 0 0 0 4 0 4 1 6 39 100 65 75 100 100 100 100 100 100 100 100 98 74 5 4 0 0 5 4 5 40 88 100 100 100 100 96 94 98 100 67
0 0 0 0 0 0 0 0 0 0 0 0 0 5 0 5 16 18 77 100 100 100 100 100 100 100 100 100 100 70 5 0 1 94 6 24 12 5 100 10 100 100 100 100 89 97 100 100 98
0 0 0 0 0 0 0 0 0 0 0 0 0 1 4 4 75 31 90 96 100 100 100 100 100 100 100 89 8 5 5 4 5 5 21 36 100 100 98 79 100 100 100 100 100 100 100 100 100
1 0 0 0 0 0 0 0 0 0 0 0 0 0 5 5 4 46 96 82 98 100 100 100 100 100 100 100 47 7 13 5 5 41 100 99 100 100 97 35 98 100 100 100 100 94 100 100 100
37 0 0 0 0 0 0 0 0 0 0 0 0 0 5 1 6 66 72 58 26 10 94 100 100 100 100 97 11 4 5 5 17 95 94 86 97 100 38 100 89 100 100 100 100 100 100 100 100
77 11 5 0 0 0 0 0 0 0 0 0 0 0 0 0 57 76 95 79 100 71 100 81 92 100 100 100 100 76 5 26 80 41 17 100 57 100 96 98 91 100 100 100 96 100 88 100 100
27 5 4 1 0 0 0 0 0 0 0 0 0 0 0 0 5 100 100 93 100 98 80 80 92 100 100 100 100 100 82 94 99 62 67 100 100 87 97 89 72 98 100 100 100 100 100 100 100
5 6 20 3 0 5 1 0 0 0 0 0 0 0 0 0 5 67 84 100 91 100 100 98 98 100 99 91 100 100 98 100 100 100 100 100 45 100 100 100 64 93 100 100 100 100 100 100 100
0 2 1 0 0 1 0 0 5 0 0 0 0 0 0 0 5 54 90 100 96 60 75 100 100 85 100 77 100 100 100 100 100 100 93 100 100 100 100 99 95 100 100 100 100 100 100 100 100
6 0 0 0 16 5 5 2 0 0 0 0 0 0 0 0 0 89 100 7 100 97 100 100 69 51 75 100 100 100 100 100 42 99 100 51 99 99 100 55 99 100 100 100 100 100 100 100 81
78 5 1 0 60 50 0 0 0 0 0 0 0 0 4 0 14 100 59 12 68 80 100 100 100 100 100 100 100 85 87 100 100 100 55 100 100 100 100 45 58 89 59 49 81 96 99 93 93
99 59 15 16 5 5 3 0 0 0 0 0 0 0 0 5 100 87 57 56 29 33 100 43 100 100 100 100 96 71 49 14 58 100 97 100 100 100 100 100 12 5 69 100 100 96 100 100 100
5 81 90 51 1 1 5 0 0 0 0 0 0 0 0 35 100 91 52 12 39 100 100 100 13 32 17 48 100 43 16 96 27 1 7 67 100 100 100 100 13 5 0 1 10 7 53 87 62
66 40 88 47 0 43 13 0 5 0 0 0 0 0 0 8 46 99 87 87 29 38 8 1 0 53 58 100 32 2 30 11 0 0 0 4 5 9 5 4 0 0 0 0 0 0 0 12 8
100 92 88 24 0 30 36 0 5 4 0 0 0 0 3 99 100 100 53 44 26 5 41 3 22 32 38 40 4 0 0 1 2 0 0 0 0 0 0 0 0 0 0 0 0 0 0 19 2
100 66 64 45 1 100 0 0 5 5 0 0 0 0 33 89 100 88 25 45 19 73 2 70 32 7 5 1 5 3 0 0 0 0 0 0 0 0 0 0 0 0 0 0 0 0 2 13 17
100 98 91 36 0 1 78 3 5 5 0 0 0 0 84 55 86 77 100 42 98 100 23 99 96 68 87 100 23 6 4 3 0 0 0 0 0 0 0 0 0 0 0 4 1 0 0 0 6

GFSSGP_prec_cloud_171.txt.gz
Cloud_Cover
0 0 0 0 0 0 0 0 4 96 100 6 86 100 100 36 98 100 100 99 14 7 5 31 62 62 66 19 4 8 90 7 0 5 12 5 24 23 44 70 100 100 82 44 5 45 5 5 5
0 0 0 0 0 0 0 0 0 12 49 69 9 96 100 70 100 100 100 100 51 5 4 5 55 100 100 100 100 100 100 100 60 75 57 15 16 5 68 98 100 95 83 9 95 57 8 5 10
0 0 0 0 0 0 0 0 0 2 20 74 24 7 96 100 100 100 100 100 48 56 57 72 10 100 100 100 100 100 100 40 100 100 100 100 15 5 34 55 100 95 100 5 5 5 5 5 0
0 0 0 0 0 0 0 1 5 4 5 4 100 24 66 100 100 100 82 100 91 100 100 72 17 100 57 7 100 69 100 60 56 5 12 0 0 5 5 9 98 68 62 14 5 5 3 0 0
0 0 0 0 0 0 0 0 5 23 0 0 39 47 5 100 100 100 100 100 100 92 100 100 58 65 23 2 5 3 100 98 100 100 70 12 4 0 5 5 6 5 8 5 4 3 5 0 0
0 0 0 0 0 0 0 0 0 0 0 0 2 20 63 97 98 100 100 100 100 100 100 100 100 86 100 100 85 99 100 84 100 100 61 9 5 0 3 5 3 5 5 4 1 2 5 5 0
0 0 0 0 0 0 0 0 0 0 0 0 4 4 99 96 38 86 100 100 100 99 100 82 57 35 100 38 86 16 56 14 100 82 100 71 4 1 0 5 4 3 1 5 5 3 5 5 4
0 0 0 0 0 0 0 0 0 0 0 0 3 0 64 99 96 6 99 100 100 100 100 100 81 100 100 99 87 5 5 82 100 15 5 6 100 100 5 0 0 3 68 16 6 5 5 5 5
0 0 0 0 0 0 0 0 0 0 0 0 1 0 0 76 100 100 21 72 100 100 100 100 84 100 100 4 96 61 5 5 5 0 1 70 89 22 67 74 4 19 100 25 5 5 5 5 5
0 0 0 0 0 0 0 0 0 0 0 0 2 0 0 96 96 100 100 71 100 100 100 100 100 94 90 11 69 80 17 8 7 83 7 2 15 5 2 10 56 10 55 5 5 5 74 10 8
0 0 0 0 0 0 0 0 0 0 0 0 0 0 0 0 10 100 100 100 99 100 100 100 100 100 35 98 84 99 65 100 96 91 6 0 5 4 13 39 42 48 5 5 53 94 99 10 14
0 0 0 0 0 0 0 0 0 0 0 0 2 4 0 0 0 79 100 100 100 65 95 100 100 100 78 97 100 77 22 70 44 5 5 2 4 5 3 25 44 6 5 8 100 90 70 33 5
0 0 0 0 0 0 0 0 0 0 0 0 0 0 0 0 0 13 71 94 100 100 98 100 100 100 100 100 100 52 21 14 5 5 3 5 0 11 8 5 19 5 4 49 100 97 46 21 9
0 0 5 5 0 0 0 0 0 0 0 0 0 0 0 5 0 0 12 72 81 100 100 100 100 100 100 93 90 97 100 100 100 7 5 4 6 5 5 5 5 5 5 19 45 100 100 100 100
0 0 5 2 5 0 0 0 0 0 0 0 0 0 0 3 0 0 10 32 47 100 100 100 100 100 100 98 87 97 100 100 100 100 100 5 5 68 100 99 20 47 58 92 100 98 99 100 99
0 0 0 0 4 3 0 0 0 0 0 0 0 0 0 0 12 10 71 99 100 100 100 100 100 100 100 100 100 100 100 100 98 59 29 5 5 24 8 17 42 23 100 100 97 79 99 97 78
9 2 1 0 0 0 0 0 0 0 0 0 0 0 0 5 1 79 95 100 100 100 100 85 100 100 100 100 100 100 100 100 100 30 5 0 48 36 5 12 73 96 60 96 100 97 45 17 45
100 94 5 20 0 0 0 0 1 0 0 0 0 0 0 5 5 64 76 100 100 100 46 77 97 94 100 100 100 100 100 100 10 14 10 70 8 5 9 27 71 24 98 84 65 92 90 63 100
100 100 100 100 47 0 0 4 0 0 0 0 0 0 0 4 22 79 100 100 100 100 100 95 36 78 100 100 100 100 100 80 12 81 73 47 100 100 100 100 5 4 20 100 97 100 78 100 100
100 100 45 100 100 23 3 0 0 0 0 0 0 0 0 0 11 98 45 100 100 100 92 22 7 100 100 100 100 100 100 90 88 93 100 100 100 99 78 95 19 33 21 91 99 94 100 100 100
100 100 100 100 84 57 90 8 0 0 0 0 0 0 0 0 7 20 63 100 100 91 13 5 6 88 100 100 100 100 100 100 100 100 100 100 100 100 100 90 72 93 46 97 100 100 100 100 100
100 100 53 91 83 5 0 1 0 0 0 0 0 0 0 0 5 8 45 94 96 30 13 5 31 97 87 16 85 100 51 100 100 100 100 100 100 100 100 100 92 68 71 74 95 11 8 100 100
100 95 87 5 5 64 4 0 0 0 0 0 0 0 0 0 3 93 93 100 100 100 80 7 70 5 5 5 5 9 5 28 100 100 100 100 100 100 100 100 100 100 100 100 100 100 99 97 79
100 50 5 5 5 4 11 2 0 0 0 0 0 0 2 0 4 100 99 100 100 100 100 98 5 23 40 17 98 55 100 100 36 62 93 96 86 94 100 100 100 95 100 100 100 100 100 100 100
100 100 41 35 63 2 0 4 0 4 0 0 0 0 4 5 4 71 59 79 100 100 59 100 29 98 95 94 94 86 93 100 100 31 30 65 19 20 10 32 79 100 100 95 100 70 42 9 3
100 82 100 100 80 0 4 0 46 2 2 0 0 0 4 5 1 0 93 37 36 28 52 62 98 100 98 95 98 94 99 100 100 100 40 5 0 2 0 0 0 0 0 0 0 0 0 1 0
100 100 100 99 85 100 84 3 98 0 1 0 0 0 0 5 6 8 40 7 100 100 100 5 84 96 94 100 100 100 100 100 99 91 2 0 0 0 0 0 0 0 0 0 0 0 0 0 0
97 98 100 99 21 100 100 15 100 0 2 0 2 1 1 21 60 80 74 99 100 100 100 92 64 51 78 27 71 96 78 24 9 0 0 0 0 0 0 0 0 0 0 0 0 0 0 3 1
86 88 18 94 100 100 100 100 100 2 0 0 2 4 4 89 1 2 100 100 100 100 100 16 33 9 6 0 0 0 0 1 0 0 0 0 0 0 0 0 0 0 0 0 0 0 0 0 1
97 98 100 100 34 4 82 100 100 4 2 0 0 0 79 16 3 83 100 100 100 100 100 23 0 29 4 0 3 4 1 0 0 0 0 0 0 0 0 0 0 0 0 0 0 0 0 0 0

GFSSGP_prec_cloud_174.txt.gz
Cloud_Cover
0 0 0 0 0 2 13 0 5 6 98 100 100 100 100 100 100 100 100 100 100 1 1 0 6 9 86 100 79 4 0 1 83 20 0 5 5 5 21 4 5 5 5 5 5 4 4 0 0
0 0 0 0 0 3 7 0 5 14 65 62 93 100 100 48 100 100 100 100 100 8 3 3 6 14 18 90 29 100 15 100 100 100 50 18 4 8 5 0 2 5 5 5 6 0 0 0 0
0 0 0 0 0 1 87 4 0 0 60 46 39 93 100 21 100 100 100 100 100 100 100 10 49 1 64 100 100 100 100 100 100 100 100 100 88 9 1 3 5 11 5 5 5 4 0 0 1
0 0 0 0 0 1 31 12 0 0 62 94 5 44 100 94 8 100 98 100 100 100 100 67 33 13 7 100 100 98 100 100 100 100 25 5 1 3 0 0 5 5 2 2 0 0 0 0 0
0 0 0 0 0 0 0 0 0 7 94 44 0 5 42 97 71 100 100 100 100 98 100 100 11 79 17 100 100 69 42 10 46 98 100 87 6 5 0 0 0 4 0 0 4 0 1 0 0
0 0 0 0 0 0 0 0 0 5 42 100 4 1 26 94 100 100 100 100 100 97 69 80 100 65 77 100 65 25 38 39 6 54 100 100 86 95 5 0 14 6 5 0 2 2 0 0 1
0 0 0 0 0 0 0 0 0 5 36 94 90 2 4 34 44 100 100 100 96 70 72 99 91 94 97 100 100 100 100 100 85 6 100 77 5 10 72 99 100 71 1 5 5 0 4 0 0
0 0 0 0 0 0 0 0 0 0 23 80 82 100 93 14 5 76 100 100 100 92 100 81 16 49 94 99 6 81 91 12 5 0 61 90 39 5 42 76 99 99 90 100 2 0 5 0 5
0 0 0 0 0 0 0 0 0 0 0 32 34 100 99 4 1 6 98 100 100 100 100 100 100 67 88 63 73 100 56 8 75 61 5 6 5 5 5 3 5 5 5 4 0 0 0 0 1
0 0 0 0 0 0 0 0 0 0 0 0 6 68 5 3 0 76 100 100 100 100 100 100 99 100 75 5 30 100 96 76 48 100 20 100 100 85 5 19 4 5 2 0 0 0 0 2 0
0 0 0 0 0 0 0 0 0 0 0 0 3 18 5 1 0 3 97 100 92 100 100 100 100 100 93 97 10 92 5 5 6 74 100 100 100 100 39 8 5 5 0 0 0 0 0 4 5
0 0 0 0 0 0 0 0 0 0 0 0 2 93 8 0 0 0 5 100 92 84 100 74 100 100 96 33 99 100 18 14 100 100 91 100 75 70 23 5 4 0 0 0 0 0 0 60 5
0 0 0 0 0 0 0 0 0 0 0 0 0 77 100 0 0 3 12 23 100 94 100 100 100 100 100 76 98 73 70 93 100 100 53 93 25 22 8 4 3 0 1 0 0 1 86 0 91
0 0 0 0 0 0 0 0 0 0 0 0 0 0 24 0 0 8 100 26 5 94 100 100 99 100 100 100 100 100 100 100 100 64 51 47 61 90 11 2 0 2 1 6 5 6 5 5 86
0 0 0 0 0 0 0 0 0 0 0 0 0 0 10 92 0 3 78 2 40 100 100 100 100 100 100 100 100 100 100 100 100 100 100 100 100 100 100 28 2 0 5 5 5 40 68 7 4
0 0 0 0 0 0 4 0 0 0 0 0 0 0 0 73 39 0 22 94 10 23 99 100 100 100 100 100 100 100 100 92 100 100 100 100 100 96 44 5 33 5 0 2 69 57 5 4 3
4 4 1 0 0 0 0 0 0 0 0 0 0 0 0 0 10 6 6 59 0 0 77 100 100 100 100 100 100 100 100 100 100 100 100 94 20 73 5 88 40 79 57 100 52 5 5 5 5
79 90 89 12 1 0 0 0 1 0 0 0 0 0 0 0 0 100 74 1 58 4 88 100 36 100 100 100 100 100 100 100 100 100 100 100 79 7 76 45 74 80 100 53 42 1 5 5 5
100 79 15 5 2 66 0 4 4 1 0 0 0 0 0 0 0 8 100 100 62 71 100 67 57 5 81 100 100 100 100 100 100 100 100 100 100 86 88 98 61 92 98 68 20 6 5 88 68
13 82 100 88 5 94 94 20 0 2 2 0 0 0 0 0 0 0 100 100 100 32 94 5 61 99 89 100 98 100 100 100 100 100 100 99 100 57 41 79 48 56 95 96 96 25 26 6 6
97 82 100 64 32 10 7 100 27 1 4 14 0 0 0 0 0 0 55 100 98 99 65 62 71 100 84 100 27 45 100 100 100 100 100 100 98 97 100 100 99 19 15 6 7 76 99 100 100
13 91 98 100 7 100 41 58 100 2 92 5 1 0 0 0 0 0 1 1 98 100 92 14 100 97 78 77 17 12 94 91 100 100 100 100 100 100 100 100 61 95 88 97 100 100 100 100 98
100 100 99 34 50 100 87 95 98 2 0 3 0 0 0 0 0 0 64 100 100 100 55 54 91 11 5 5 49 100 100 8 70 100 100 100 100 100 100 100 100 100 100 73 15 2 0 0 0
100 100 100 41 16 92 96 100 1 89 0 1 0 0 0 0 0 0 15 99 81 43 41 92 67 5 37 66 88 99 99 91 43 77 90 100 100 100 54 3 0 0 0 0 0 3 1 0 0
100 100 100 100 52 8 0 94 45 0 0 0 0 0 0 0 0 0 0 11 92 89 74 54 53 59 85 77 52 90 84 82 56 40 20 14 6 5 0 0 0 0 0 0 0 0 0 0 0
99 100 100 100 92 85 91 100 0 60 1 0 0 0 0 0 0 0 0 18 3 58 98 98 100 100 100 95 69 100 99 100 66 5 5 5 4 5 0 0 0 0 0 0 0 0 0 0 0
89 100 100 100 100 26 98 60 98 100 100 7 0 0 0 0 0 0 0 0 85 88 100 100 100 100 100 88 100 100 100 43 68 72 13 100 99 54 8 0 0 0 0 0 0 0 0 0 0
50 100 89 100 100 97 96 83 96 20 100 65 0 0 0 0 0 0 0 20 46 74 100 100 100 100 100 100 100 100 55 62 73 54 100 59 2 0 0 0 0 0 0 0 0 0 0 0 0
80 100 100 100 100 100 100 98 33 90 66 10 0 0 0 0 63 2 0 97 100 100 100 100 100 100 100 100 100 99 64 70 75 70 26 11 0 0 0 0 0 0 0 0 0 0 0 0 0
92 5 100 81 100 9 100 100 100 98 0 0 5 3 0 0 28 0 0 100 100 100 100 100 99 75 100 100 100 98 98 96 97 99 90 5 0 0 0 0 0 0 0 0 0 0 0 0 0